Location: Brede
(50.9167°N, 0.6000°E)
Time: 20:43:33
(UTC+00:00)

Vanguard 1 Rocket - Pass Details

Date: 01 December 2020
Orbit: 655 x 4221 km, 34.3° (Epoch: 17 January)

Event Time Altitude Azimuth Distance (km) Brightness Sun altitude
Exits shadow 05:34:28 16° 259° (W) 6,158 11.0 -18.7°
Maximum altitude 05:47:55 34° 211° (SSW) 3,905 10.4 -16.6°
Drops below altitude 10° 05:58:39 10° 152° (SSE) 4,268 11.4 -15.0°
Sets 06:01:43 0° 143° (SE) 4,860 12.1 -14.5°
